KC3FKS-2 Weather Reports


Display with metric or nautical units.
time (UTC)temp
F
wind
direction
speed
MPH
gust
MPH
rain 1hr
in
rain 24hr
in
rain mn
in
humidity
%
barometer
mb
20180220214122 71 253 10.0 9.0 0.00 0.00 0.00
20180220213934 71 253 10.0 9.0 0.00 0.00 0.00
20180220213629 69 245 10.0 6.0 0.00 0.00 0.00
20180220213431 69 245 10.0 6.0 0.00 0.00 0.00
20180220212931 70 221 11.0 9.0 0.00 0.00 0.00
20180220212611 70 228 10.0 9.0 0.00 0.00 0.00
20180220212431 70 228 10.0 9.0 0.00 0.00 0.00
20180220211931 70 231 8.0 11.0 0.00 0.00 0.00
20180220210928 67 228 10.0 9.0 0.00 0.00 0.00
20180220210606 68 228 10.0 10.0 0.00 0.00 0.00
20180220210428 68 228 10.0 10.0 0.00 0.00 0.00
20180220205426 68 222 10.0 12.0 0.00 0.00 0.00
20180220204925 68 250 11.0 11.0 0.00 0.00 0.00
20180220204654 68 242 10.0 8.0 0.00 0.00 0.00
20180220204426 68 242 10.0 8.0 0.00 0.00 0.00
20180220203926 68 263 10.0 9.0 0.00 0.00 0.00
20180220203423 69 201 8.0 9.0 0.00 0.00 0.00
20180220202423 69 218 9.0 10.0 0.00 0.00 0.00
20180220201923 68 219 8.0 8.0 0.00 0.00 0.00
20180220201632 69 205 11.0 13.0 0.00 0.00 0.00
20180220201420 69 205 11.0 13.0 0.00 0.00 0.00
20180220200920 69 231 8.0 12.0 0.00 0.00 0.00
20180220200622 69 219 10.0 6.0 0.00 0.00 0.00
20180220200419 69 219 10.0 6.0 0.00 0.00 0.00
20180220195919 69 218 9.0 7.0 0.00 0.00 0.00
20180220195630 69 259 10.0 11.0 0.00 0.00 0.00
20180220195416 69 259 10.0 11.0 0.00 0.00 0.00
20180220195118 69 263 7.0 9.0 0.00 0.00 0.00
20180220194916 69 263 7.0 9.0 0.00 0.00 0.00
20180220194140 69 278 10.0 8.0 0.00 0.00 0.00
20180220193916 69 278 10.0 8.0 0.00 0.00 0.00
20180220193413 69 229 9.0 6.0 0.00 0.00 0.00
20180220193133 70 231 8.0 6.0 0.00 0.00 0.00
20180220192914 70 231 8.0 6.0 0.00 0.00 0.00
20180220192413 69 259 9.0 8.0 0.00 0.00 0.00
20180220192227 69 235 8.0 9.0 0.00 0.00 0.00
20180220191914 69 235 8.0 9.0 0.00 0.00 0.00
20180220191629 70 232 9.0 10.0 0.00 0.00 0.00
20180220191411 70 232 9.0 10.0 0.00 0.00 0.00
20180220190618 70 253 9.0 11.0 0.00 0.00 0.00
20180220190411 70 253 9.0 11.0 0.00 0.00 0.00
20180220185549 70 271 8.0 10.0 0.00 0.00 0.00
20180220185408 70 271 8.0 10.0 0.00 0.00 0.00
20180220185131 70 266 6.0 6.0 0.00 0.00 0.00
20180220184908 70 266 6.0 6.0 0.00 0.00 0.00
20180220184555 70 235 7.0 5.0 0.00 0.00 0.00
20180220184408 70 235 7.0 5.0 0.00 0.00 0.00
20180220184237 69 233 7.0 6.0 0.00 0.00 0.00
20180220183909 69 233 7.0 6.0 0.00 0.00 0.00
20180220182906 70 229 6.0 6.0 0.00 0.00 0.00
20180220182634 70 222 5.0 7.0 0.00 0.00 0.00
20180220182406 70 222 5.0 7.0 0.00 0.00 0.00
20180220182030 69 283 8.0 4.0 0.00 0.00 0.00
20180220181906 69 283 8.0 4.0 0.00 0.00 0.00
20180220181533 69 259 6.0 7.0 0.00 0.00 0.00
20180220181403 69 259 6.0 7.0 0.00 0.00 0.00
20180220180903 69 274 5.0 3.0 0.00 0.00 0.00
20180220180057 68 280 7.0 5.0 0.00 0.00 0.00
20180220175902 68 280 7.0 5.0 0.00 0.00 0.00
20180220175616 68 256 5.0 5.0 0.00 0.00 0.00
20180220175359 68 256 5.0 5.0 0.00 0.00 0.00
20180220175059 68 263 5.0 5.0 0.00 0.00 0.00
20180220174859 68 263 5.0 5.0 0.00 0.00 0.00
20180220174535 68 239 5.0 5.0 0.00 0.00 0.00
20180220174359 68 239 5.0 5.0 0.00 0.00 0.00
20180220174133 67 236 7.0 4.0 0.00 0.00 0.00
20180220173859 67 236 7.0 4.0 0.00 0.00 0.00
20180220173356 67 283 9.0 8.0 0.00 0.00 0.00
20180220172356 66 255 6.0 6.0 0.00 0.00 0.00
20180220171856 66 283 5.0 6.0 0.00 0.00 0.00
20180220171641 66 246 6.0 6.0 0.00 0.00 0.00
20180220171353 66 246 6.0 6.0 0.00 0.00 0.00
20180220170853 65 267 8.0 6.0 0.00 0.00 0.00
20180220170353 65 278 8.0 4.0 0.00 0.00 0.00
20180220170037 66 256 3.0 7.0 0.00 0.00 0.00
20180220165853 66 256 3.0 7.0 0.00 0.00 0.00
20180220165052 64 270 6.0 10.0 0.00 0.00 0.00
20180220164850 64 270 6.0 10.0 0.00 0.00 0.00
20180220164350 65 274 7.0 9.0 0.00 0.00 0.00
20180220164148 64 260 9.0 5.0 0.00 0.00 0.00
20180220163851 64 260 9.0 5.0 0.00 0.00 0.00
20180220163527 64 238 12.0 8.0 0.00 0.00 0.00
20180220163347 64 238 12.0 8.0 0.00 0.00 0.00
20180220163102 64 160 8.0 8.0 0.00 0.00 0.00
20180220162848 64 160 8.0 8.0 0.00 0.00 0.00
20180220162559 63 277 6.0 9.0 0.00 0.00 0.00
20180220161848 63 267 8.0 9.0 0.00 0.00 0.00
20180220161345 62 246 6.0 5.0 0.00 0.00 0.00
20180220160557 61 257 8.0 9.0 0.00 0.00 0.00
20180220160345 61 257 8.0 9.0 0.00 0.00 0.00
20180220160047 60 262 9.0 6.0 0.00 0.00 0.00
20180220155846 60 262 9.0 6.0 0.00 0.00 0.00
20180220155609 60 283 6.0 8.0 0.00 0.00 0.00
20180220155343 60 283 6.0 8.0 0.00 0.00 0.00
20180220154531 60 248 10.0 9.0 0.00 0.00 0.00
20180220154343 60 248 10.0 9.0 0.00 0.00 0.00
20180220153843 60 290 8.0 5.0 0.00 0.00 0.00
20180220153619 60 270 9.0 8.0 0.00 0.00 0.00
20180220153341 60 270 9.0 8.0 0.00 0.00 0.00
20180220153050 60 263 9.0 9.0 0.00 0.00 0.00
20180220152841 60 263 9.0 9.0 0.00 0.00 0.00
20180220152341 60 269 9.0 8.0 0.00 0.00 0.00
20180220151841 59 253 9.0 7.0 0.00 0.00 0.00
20180220151516 59 270 7.0 5.0 0.00 0.00 0.00
20180220151338 59 270 7.0 5.0 0.00 0.00 0.00
20180220151152 59 276 7.0 7.0 0.00 0.00 0.00
20180220150839 59 276 7.0 7.0 0.00 0.00 0.00
20180220150339 60 280 5.0 5.0 0.00 0.00 0.00
20180220145138 59 270 10.0 8.0 0.00 0.00 0.00
20180220144836 59 270 10.0 8.0 0.00 0.00 0.00
20180220144336 58 287 8.0 9.0 0.00 0.00 0.00
20180220142556 58 266 7.0 8.0 0.00 0.00 0.00
20180220142334 58 266 7.0 8.0 0.00 0.00 0.00
20180220141834 58 262 9.0 11.0 0.00 0.00 0.00
20180220141448 58 274 7.0 7.0 0.00 0.00 0.00
20180220141331 58 274 7.0 7.0 0.00 0.00 0.00
20180220140831 58 252 8.0 8.0 0.00 0.00 0.00
20180220135831 58 300 2.0 0.0 0.00 0.00 0.00
20180220135328 57 246 8.0 8.0 0.00 0.00 0.00
20180220134327 57 271 5.0 3.0 0.00 0.00 0.00
20180220134153 57 260 6.0 4.0 0.00 0.00 0.00
20180220133828 57 260 6.0 4.0 0.00 0.00 0.00
20180220133325 56 232 2.0 0.0 0.00 0.00 0.00
20180220132946 56 255 3.0 5.0 0.00 0.00 0.00
20180220132825 56 255 3.0 5.0 0.00 0.00 0.00
20180220132325 57 273 6.0 5.0 0.00 0.00 0.00
20180220131825 56 278 5.0 7.0 0.00 0.00 0.00
20180220131322 56 248 4.0 4.0 0.00 0.00 0.00
20180220130323 56 264 7.0 4.0 0.00 0.00 0.00
20180220125610 56 277 7.0 3.0 0.00 0.00 0.00
20180220125320 56 277 7.0 3.0 0.00 0.00 0.00
20180220123317 55 239 5.0 3.0 0.00 0.00 0.00
20180220122549 55 262 8.0 6.0 0.00 0.00 0.00
20180220122318 55 262 8.0 6.0 0.00 0.00 0.00
20180220120315 55 278 4.0 5.0 0.00 0.00 0.00
20180220120029 54 277 5.0 4.0 0.00 0.00 0.00
20180220115815 54 277 5.0 4.0 0.00 0.00 0.00
20180220115049 54 232 4.0 1.0 0.00 0.00 0.00
20180220114812 54 232 4.0 1.0 0.00 0.00 0.00
20180220114616 54 270 5.0 7.0 0.00 0.00 0.00
20180220114312 54 270 5.0 7.0 0.00 0.00 0.00
20180220114042 54 273 7.0 7.0 0.00 0.00 0.00
20180220113812 54 273 7.0 7.0 0.00 0.00 0.00
20180220112938 54 262 3.0 6.0 0.00 0.00 0.00
20180220112809 54 262 3.0 6.0 0.00 0.00 0.00
20180220112308 54 262 5.0 4.0 0.00 0.00 0.00
20180220112114 54 267 4.0 5.0 0.00 0.00 0.00
20180220111808 54 267 4.0 5.0 0.00 0.00 0.00
20180220110805 54 264 3.0 4.0 0.00 0.00 0.00
20180220110305 54 248 5.0 7.0 0.00 0.00 0.00
20180220104801 54 274 8.0 7.0 0.00 0.00 0.00
20180220104017 53 280 7.0 8.0 0.00 0.00 0.00
20180220103802 53 280 7.0 8.0 0.00 0.00 0.00
20180220103259 54 267 8.0 7.0 0.00 0.00 0.00
20180220102801 54 257 8.0 12.0 0.00 0.00 0.00
20180220101759 54 264 5.0 7.0 0.00 0.00 0.00
20180220100256 54 249 5.0 5.0 0.00 0.00 0.00
20180220095931 54 259 4.0 3.0 0.00 0.00 0.00
20180220095756 54 259 4.0 3.0 0.00 0.00 0.00
20180220093752 54 257 6.0 2.0 0.00 0.00 0.00
20180220093508 54 243 5.0 6.0 0.00 0.00 0.00
20180220093249 54 243 5.0 6.0 0.00 0.00 0.00
20180220092749 54 198 3.0 0.0 0.00 0.00 0.00
20180220092249 53 238 2.0 5.0 0.00 0.00 0.00
20180220092010 54 273 6.0 4.0 0.00 0.00 0.00
20180220091749 54 273 6.0 4.0 0.00 0.00 0.00
20180220091246 53 293 7.0 5.0 0.00 0.00 0.00
20180220090746 53 243 5.0 4.0 0.00 0.00 0.00
20180220090516 53 243 4.0 0.0 0.00 0.00 0.00
20180220090246 53 243 4.0 0.0 0.00 0.00 0.00
20180220085745 53 283 4.0 6.0 0.00 0.00 0.00
20180220084743 53 273 2.0 6.0 0.00 0.00 0.00
20180220083239 53 273 1.0 4.0 0.00 0.00 0.00
20180220082739 52 252 0.0 2.0 0.00 0.00 0.00
20180220081738 52 270 1.0 1.0 0.00 0.00 0.00
20180220081235 52 250 1.0 4.0 0.00 0.00 0.00
20180220080735 52 255 4.0 6.0 0.00 0.00 0.00
20180220080555 52 253 3.0 3.0 0.00 0.00 0.00
20180220080234 52 253 3.0 3.0 0.00 0.00 0.00
20180220075735 52 222 2.0 1.0 0.00 0.00 0.00
20180220075232 52 269 3.0 1.0 0.00 0.00 0.00
20180220074232 52 256 2.0 3.0 0.00 0.00 0.00
20180220073732 52 240 2.0 1.0 0.00 0.00 0.00
20180220073513 52 243 5.0 3.0 0.00 0.00 0.00
20180220073230 52 243 5.0 3.0 0.00 0.00 0.00
20180220072730 52 252 4.0 4.0 0.00 0.00 0.00
20180220072512 52 231 2.0 4.0 0.00 0.00 0.00
20180220072230 52 231 2.0 4.0 0.00 0.00 0.00
20180220070957 52 236 5.0 3.0 0.00 0.00 0.00
20180220070727 52 236 5.0 3.0 0.00 0.00 0.00
20180220070529 52 246 3.0 1.0 0.00 0.00 0.00
20180220070226 52 246 3.0 1.0 0.00 0.00 0.00
20180220065727 52 194 0.0 0.0 0.00 0.00 0.00
20180220062222 52 246 3.0 0.0 0.00 0.00 0.00
20180220061218 52 260 4.0 4.0 0.00 0.00 0.00
20180220054359 52 255 3.0 1.0 0.00 0.00 0.00
20180220054214 52 255 3.0 1.0 0.00 0.00 0.00
20180220053336 52 215 2.0 0.0 0.00 0.00 0.00
20180220053209 52 215 2.0 0.0 0.00 0.00 0.00
20180220052710 52 270 2.0 6.0 0.00 0.00 0.00
20180220052440 52 262 1.0 1.0 0.00 0.00 0.00
20180220052211 52 262 1.0 1.0 0.00 0.00 0.00
20180220051845 52 232 4.0 2.0 0.00 0.00 0.00
20180220051710 52 232 4.0 2.0 0.00 0.00 0.00
20180220051412 52 248 4.0 4.0 0.00 0.00 0.00
20180220051207 52 248 4.0 4.0 0.00 0.00 0.00
20180220050707 52 226 4.0 3.0 0.00 0.00 0.00
20180220050445 52 224 5.0 6.0 0.00 0.00 0.00
20180220050208 52 224 5.0 6.0 0.00 0.00 0.00
20180220045707 52 215 4.0 3.0 0.00 0.00 0.00
20180220044939 52 205 4.0 6.0 0.00 0.00 0.00
20180220044705 52 205 4.0 6.0 0.00 0.00 0.00
20180220044449 52 253 1.0 3.0 0.00 0.00 0.00
20180220044204 52 253 1.0 3.0 0.00 0.00 0.00
20180220043705 52 203 5.0 6.0 0.00 0.00 0.00
20180220043544 52 204 3.0 4.0 0.00 0.00 0.00
20180220043202 52 204 3.0 4.0 0.00 0.00 0.00
20180220042702 52 217 4.0 0.0 0.00 0.00 0.00
20180220041703 52 232 1.0 0.0 0.00 0.00 0.00
20180220041201 52 215 4.0 5.0 0.00 0.00 0.00
20180220040659 52 224 5.0 4.0 0.00 0.00 0.00
20180220035659 52 229 0.0 0.0 0.00 0.00 0.00
20180220035156 52 239 0.0 2.0 0.00 0.00 0.00
20180220034656 52 256 3.0 3.0 0.00 0.00 0.00
20180220034156 52 221 3.0 4.0 0.00 0.00 0.00
20180220034024 52 207 5.0 5.0 0.00 0.00 0.00
20180220033655 52 207 5.0 5.0 0.00 0.00 0.00
20180220033554 52 211 2.0 1.0 0.00 0.00 0.00
20180220033153 52 211 2.0 1.0 0.00 0.00 0.00
20180220032153 52 222 3.0 6.0 0.00 0.00 0.00
20180220031958 52 235 2.0 6.0 0.00 0.00 0.00
20180220031653 52 235 2.0 6.0 0.00 0.00 0.00
20180220031150 52 249 6.0 3.0 0.00 0.00 0.00
20180220030650 52 232 2.0 0.0 0.00 0.00 0.00
20180220030150 52 232 3.0 1.0 0.00 0.00 0.00
20180220025502 52 242 3.0 5.0 0.00 0.00 0.00
20180220025147 52 242 3.0 5.0 0.00 0.00 0.00
20180220024443 52 215 2.0 3.0 0.00 0.00 0.00
20180220024147 52 215 2.0 3.0 0.00 0.00 0.00
20180220023551 52 246 4.0 4.0 0.00 0.00 0.00
20180220023144 52 246 4.0 4.0 0.00 0.00 0.00
20180220022144 53 228 5.0 2.0 0.00 0.00 0.00
20180220021644 53 257 4.0 3.0 0.00 0.00 0.00
20180220021047 52 239 4.0 3.0 0.00 0.00 0.00
20180220020641 52 239 4.0 3.0 0.00 0.00 0.00
20180220020141 52 246 5.0 5.0 0.00 0.00 0.00
20180220014638 52 225 7.0 8.0 0.00 0.00 0.00
20180220014139 52 243 6.0 6.0 0.00 0.00 0.00
20180220014041 52 229 6.0 6.0 0.00 0.00 0.00
20180220013638 52 229 6.0 6.0 0.00 0.00 0.00
20180220013403 52 225 5.0 5.0 0.00 0.00 0.00
20180220013135 52 225 5.0 5.0 0.00 0.00 0.00
20180220012836 53 240 4.0 6.0 0.00 0.00 0.00
20180220012635 53 240 4.0 6.0 0.00 0.00 0.00
20180220012549 52 225 5.0 7.0 0.00 0.00 0.00
20180220012135 52 225 5.0 7.0 0.00 0.00 0.00
20180220010758 52 225 6.0 5.0 0.00 0.00 0.00
20180220010633 52 225 6.0 5.0 0.00 0.00 0.00
20180220005632 52 226 5.0 7.0 0.00 0.00 0.00
20180220005129 52 236 6.0 6.0 0.00 0.00 0.00
20180220004829 53 249 5.0 6.0 0.00 0.00 0.00
20180220004629 53 249 5.0 6.0 0.00 0.00 0.00
20180220004129 53 215 6.0 6.0 0.00 0.00 0.00
20180220003629 53 253 5.0 5.0 0.00 0.00 0.00
20180220003359 53 256 6.0 2.0 0.00 0.00 0.00
20180220003126 53 256 6.0 2.0 0.00 0.00 0.00
20180220002626 53 249 5.0 6.0 0.00 0.00 0.00
20180220002359 53 248 3.0 1.0 0.00 0.00 0.00
20180220002126 53 248 3.0 1.0 0.00 0.00 0.00
20180220001315 53 203 4.0 2.0 0.00 0.00 0.00
20180220001123 53 203 4.0 2.0 0.00 0.00 0.00
20180220000750 53 222 5.0 3.0 0.00 0.00 0.00
20180220000624 53 222 5.0 3.0 0.00 0.00 0.00
20180220000332 53 210 5.0 7.0 0.00 0.00 0.00
20180220000124 53 210 5.0 7.0 0.00 0.00 0.00
20180219235805 53 238 8.0 7.0 0.00 0.00 0.00
20180219235624 53 238 8.0 7.0 0.00 0.00 0.00
20180219234817 53 242 6.0 4.0 0.00 0.00 0.00
20180219234621 53 242 6.0 4.0 0.00 0.00 0.00
20180219234326 53 226 7.0 4.0 0.00 0.00 0.00
20180219234121 53 226 7.0 4.0 0.00 0.00 0.00
20180219233824 53 231 8.0 8.0 0.00 0.00 0.00
20180219233621 53 231 8.0 8.0 0.00 0.00 0.00
20180219233321 54 253 7.0 8.0 0.00 0.00 0.00
20180219233116 54 253 7.0 8.0 0.00 0.00 0.00
20180219230741 54 226 9.0 9.0 0.00 0.00 0.00
20180219230613 54 226 9.0 9.0 0.00 0.00 0.00
20180219230416 54 224 5.0 7.0 0.00 0.00 0.00
20180219230113 54 224 5.0 7.0 0.00 0.00 0.00
20180219224110 54 212 8.0 7.0 0.00 0.00 0.00
20180219223108 54 233 5.0 6.0 0.00 0.00 0.00
20180219222806 54 233 6.0 5.0 0.00 0.00 0.00
20180219222608 54 233 6.0 5.0 0.00 0.00 0.00
20180219222108 54 228 7.0 7.0 0.00 0.00 0.00
20180219221754 54 229 7.0 7.0 0.00 0.00 0.00
20180219221608 54 229 7.0 7.0 0.00 0.00 0.00
20180219220605 54 197 7.0 11.0 0.00 0.00 0.00
20180219215324 54 228 7.0 8.0 0.00 0.00 0.00
20180219215102 54 228 7.0 8.0 0.00 0.00 0.00
20180219214602 54 232 7.0 8.0 0.00 0.00 0.00
20180219214255 54 259 5.0 5.0 0.00 0.00 0.00